RYR74YD LEPA-EDNY

Flight info

Callsign RYR74YD
Flight time 1h 42m
Altitude 30000
Route MEROS DCT LAPIT DCT CHELY DCT LUMAS DCT UNANA DCT STP DCT RAPED DCT PIGOS DCT EKSID DCT NOSTA DCT NOPMU DCT LAGEN DCT TAGIP DCT TISAX DCT UNIMI L12 MOGTI P66 KPT KPT1F
Aircraft A320/M-SDE3FGHIRWY/LB1

Departure

Time 2026-05-06 08:05
Airport Palma de Mallorca Airport (LEPA)

Arrival

Time 2026-05-06 09:47
Airport Bodensee Airport Friedrichshafen (EDNY)
Time Latitude Longitude Altitude Speed Heading
2026-05-06 07:55 39.54716 2.73672 36 ft 0 kts 59°
2026-05-06 07:59 39.54716 2.73670 36 ft 1 kts 59°
2026-05-06 07:59 39.54708 2.73654 36 ft 2 kts 58°
2026-05-06 08:00 39.54700 2.73637 36 ft 2 kts 58°
2026-05-06 08:00 39.54694 2.73619 36 ft 2 kts 85°
2026-05-06 08:00 39.54695 2.73600 36 ft 2 kts 110°
2026-05-06 08:00 39.54703 2.73583 36 ft 2 kts 136°
2026-05-06 08:01 39.54709 2.73576 36 ft 1 kts 152°
2026-05-06 08:01 39.54713 2.73573 36 ft 0 kts 149°
2026-05-06 08:02 39.54712 2.73575 36 ft 1 kts 149°
2026-05-06 08:03 39.54688 2.73594 36 ft 6 kts 148°
2026-05-06 08:03 39.54640 2.73618 37 ft 8 kts 168°
2026-05-06 08:03 39.54572 2.73657 36 ft 12 kts 149°
2026-05-06 08:03 39.54486 2.73726 36 ft 15 kts 150°
2026-05-06 08:04 39.54424 2.73798 35 ft 9 kts 85°
2026-05-06 08:04 39.54461 2.73885 35 ft 19 kts 58°
2026-05-06 08:04 39.54668 2.74317 31 ft 91 kts 58°
2026-05-06 08:04 39.55114 2.75267 17 ft 151 kts 58°
2026-05-06 08:05 39.55695 2.76486 387 ft 165 kts 58°
2026-05-06 08:05 39.56311 2.77787 964 ft 172 kts 58°
2026-05-06 08:05 39.56898 2.79073 1708 ft 168 kts 59°
2026-05-06 08:05 39.57505 2.80421 2233 ft 180 kts 59°
2026-05-06 08:06 39.58159 2.81875 2670 ft 196 kts 59°
2026-05-06 08:06 39.58871 2.83461 3049 ft 217 kts 59°
2026-05-06 08:06 39.59654 2.85203 3672 ft 228 kts 59°
2026-05-06 08:06 39.60457 2.86979 4481 ft 231 kts 59°
2026-05-06 08:07 39.61275 2.88772 5220 ft 236 kts 59°
2026-05-06 08:07 39.62123 2.90595 5963 ft 240 kts 56°
2026-05-06 08:07 39.63333 2.92171 6522 ft 254 kts 29°
2026-05-06 08:07 39.64994 2.93035 6993 ft 269 kts 18°
2026-05-06 08:08 39.66678 2.94246 7465 ft 288 kts 42°
2026-05-06 08:08 39.67834 2.96411 8180 ft 295 kts 70°
2026-05-06 08:08 39.68279 2.98968 8939 ft 298 kts 81°
2026-05-06 08:08 39.68680 3.01647 9667 ft 303 kts 76°
2026-05-06 08:09 39.69288 3.04285 10325 ft 311 kts 70°
2026-05-06 08:09 39.70097 3.06938 10726 ft 327 kts 66°
2026-05-06 08:09 39.71073 3.09687 11057 ft 345 kts 64°
2026-05-06 08:09 39.72158 3.12534 11569 ft 355 kts 63°
2026-05-06 08:10 39.73269 3.15383 12225 ft 359 kts 63°
2026-05-06 08:10 39.74411 3.18296 12868 ft 364 kts 62°
2026-05-06 08:10 39.75571 3.21259 13469 ft 369 kts 62°
2026-05-06 08:10 39.76751 3.24198 14062 ft 374 kts 59°
2026-05-06 08:11 39.78146 3.27043 14662 ft 377 kts 53°
2026-05-06 08:11 39.79787 3.29735 15268 ft 380 kts 48°
2026-05-06 08:11 39.81516 3.32335 15870 ft 383 kts 47°
2026-05-06 08:11 39.83276 3.34941 16466 ft 386 kts 47°
2026-05-06 08:12 39.85040 3.37559 17037 ft 389 kts 47°
2026-05-06 08:12 39.86836 3.40237 17596 ft 392 kts 47°
2026-05-06 08:12 39.88609 3.42890 18135 ft 395 kts 47°
2026-05-06 08:12 39.90423 3.45616 18675 ft 398 kts 47°
2026-05-06 08:13 39.92223 3.48325 19174 ft 402 kts 47°
2026-05-06 08:13 39.94067 3.51103 19651 ft 406 kts 47°
2026-05-06 08:13 39.95896 3.53863 20141 ft 409 kts 47°
2026-05-06 08:13 39.97755 3.56671 20633 ft 412 kts 47°
2026-05-06 08:14 39.99640 3.59523 21111 ft 415 kts 47°
2026-05-06 08:14 40.01535 3.62392 21578 ft 418 kts 47°
2026-05-06 08:14 40.03419 3.65246 22035 ft 422 kts 48°
2026-05-06 08:14 40.05359 3.68186 22463 ft 425 kts 48°
2026-05-06 08:15 40.07278 3.71098 22894 ft 428 kts 48°
2026-05-06 08:15 40.09207 3.74029 23326 ft 431 kts 48°
2026-05-06 08:15 40.11196 3.77054 23765 ft 433 kts 48°
2026-05-06 08:15 40.13151 3.80030 24157 ft 436 kts 48°
2026-05-06 08:16 40.15125 3.83036 24548 ft 439 kts 49°
2026-05-06 08:16 40.17117 3.86075 24910 ft 443 kts 49°
2026-05-06 08:16 40.19131 3.89147 25255 ft 447 kts 49°
2026-05-06 08:16 40.21150 3.92233 25604 ft 450 kts 49°
2026-05-06 08:17 40.23187 3.95349 25964 ft 453 kts 49°
2026-05-06 08:17 40.25243 3.98497 26304 ft 456 kts 49°
2026-05-06 08:17 40.27284 4.01626 26643 ft 458 kts 49°
2026-05-06 08:17 40.29372 4.04830 26999 ft 460 kts 49°
2026-05-06 08:18 40.31457 4.08033 27329 ft 463 kts 49°
2026-05-06 08:18 40.33546 4.11245 27649 ft 465 kts 49°
2026-05-06 08:18 40.35623 4.14440 27974 ft 468 kts 49°
2026-05-06 08:18 40.37752 4.17723 28284 ft 470 kts 49°
2026-05-06 08:19 40.39867 4.20986 28551 ft 474 kts 49°
2026-05-06 08:19 40.41999 4.24277 28826 ft 476 kts 49°
2026-05-06 08:19 40.44139 4.27583 29095 ft 479 kts 49°
2026-05-06 08:19 40.46291 4.30910 29357 ft 482 kts 48°
2026-05-06 08:20 40.48686 4.33955 29603 ft 483 kts 36°
2026-05-06 08:20 40.51493 4.36325 29877 ft 480 kts 23°
2026-05-06 08:20 40.54593 4.37919 29949 ft 475 kts 10°
2026-05-06 08:20 40.57795 4.38804 29961 ft 471 kts
2026-05-06 08:21 40.64292 4.40205 29961 ft 472 kts
2026-05-06 08:21 40.70773 4.41662 29957 ft 474 kts
2026-05-06 08:22 40.77231 4.43195 29963 ft 475 kts
2026-05-06 08:22 40.83738 4.44758 29958 ft 475 kts
2026-05-06 08:23 40.90196 4.46314 29954 ft 474 kts
2026-05-06 08:23 40.96692 4.47890 29961 ft 474 kts
2026-05-06 08:24 41.03198 4.49468 29956 ft 475 kts
2026-05-06 08:24 41.09709 4.51052 29963 ft 475 kts
2026-05-06 08:25 41.16177 4.52630 29959 ft 475 kts
2026-05-06 08:25 41.22700 4.54225 29969 ft 474 kts
2026-05-06 08:26 41.29165 4.55805 29959 ft 476 kts
2026-05-06 08:26 41.35670 4.57398 29951 ft 475 kts
2026-05-06 08:27 41.42197 4.59001 29962 ft 477 kts
2026-05-06 08:27 41.48720 4.60601 29952 ft 478 kts
2026-05-06 08:28 41.55248 4.62212 29954 ft 478 kts
2026-05-06 08:28 41.61784 4.63824 29952 ft 479 kts
2026-05-06 08:29 41.68344 4.65470 29953 ft 481 kts
2026-05-06 08:29 41.71547 4.66810 29945 ft 488 kts 19°
2026-05-06 08:29 41.74558 4.68877 29939 ft 491 kts 30°
2026-05-06 08:30 41.77281 4.71633 29949 ft 493 kts 41°
2026-05-06 08:30 41.79767 4.74825 29947 ft 492 kts 44°
2026-05-06 08:30 41.84541 4.81322 29942 ft 492 kts 45°
2026-05-06 08:31 41.89372 4.87839 29942 ft 493 kts 44°
2026-05-06 08:31 41.94222 4.94309 29941 ft 491 kts 44°
2026-05-06 08:32 41.99061 5.00747 29933 ft 493 kts 44°
2026-05-06 08:32 42.03914 5.07218 29946 ft 493 kts 44°
2026-05-06 08:33 42.08791 5.13727 29943 ft 493 kts 44°
2026-05-06 08:33 42.13607 5.20180 29949 ft 492 kts 44°
2026-05-06 08:34 42.20895 5.29967 29938 ft 492 kts 44°
2026-05-06 08:35 42.25716 5.36460 29938 ft 493 kts 44°
2026-05-06 08:35 42.30565 5.43006 29942 ft 493 kts 44°
2026-05-06 08:36 42.35410 5.49559 29939 ft 493 kts 44°
2026-05-06 08:36 42.40244 5.56117 29936 ft 493 kts 44°
2026-05-06 08:37 42.45068 5.62670 29940 ft 494 kts 44°
2026-05-06 08:37 42.49945 5.69313 29923 ft 494 kts 45°
2026-05-06 08:38 42.54756 5.75885 29935 ft 494 kts 45°
2026-05-06 08:38 42.59604 5.82521 29930 ft 494 kts 45°
2026-05-06 08:39 42.64411 5.89114 29920 ft 494 kts 45°
2026-05-06 08:39 42.69236 5.95750 29923 ft 495 kts 45°
2026-05-06 08:40 42.74057 6.02396 29930 ft 495 kts 45°
2026-05-06 08:40 42.78887 6.09065 29920 ft 495 kts 45°
2026-05-06 08:41 42.83698 6.15726 29914 ft 495 kts 45°
2026-05-06 08:41 42.88808 6.22071 29916 ft 495 kts 39°
2026-05-06 08:42 42.94066 6.28056 29913 ft 495 kts 39°
2026-05-06 08:42 42.99330 6.34062 29907 ft 496 kts 39°
2026-05-06 08:43 43.04602 6.40125 29922 ft 495 kts 39°
2026-05-06 08:43 43.09886 6.46219 29919 ft 494 kts 39°
2026-05-06 08:44 43.15172 6.52332 29906 ft 494 kts 39°
2026-05-06 08:44 43.20311 6.58524 29904 ft 494 kts 44°
2026-05-06 08:45 43.24862 6.65577 29901 ft 494 kts 54°
2026-05-06 08:45 43.28866 6.73156 29896 ft 494 kts 56°
2026-05-06 08:46 43.32870 6.80857 29891 ft 494 kts 56°
2026-05-06 08:46 43.36857 6.88445 29891 ft 494 kts 56°
2026-05-06 08:47 43.40884 6.96116 29888 ft 494 kts 56°
2026-05-06 08:47 43.44872 7.03737 29885 ft 494 kts 56°
2026-05-06 08:48 43.48878 7.11410 29885 ft 493 kts 56°
2026-05-06 08:48 43.52870 7.19076 29875 ft 493 kts 56°
2026-05-06 08:49 43.56835 7.26711 29876 ft 493 kts 56°
2026-05-06 08:49 43.60812 7.34388 29870 ft 493 kts 56°
2026-05-06 08:50 43.64778 7.42070 29866 ft 493 kts 56°
2026-05-06 08:50 43.68751 7.49781 29868 ft 493 kts 56°
2026-05-06 08:51 43.72713 7.57492 29851 ft 492 kts 56°
2026-05-06 08:51 43.76642 7.65156 29858 ft 492 kts 57°
2026-05-06 08:52 43.80722 7.72811 29847 ft 493 kts 51°
2026-05-06 08:52 43.85546 7.79530 29853 ft 492 kts 39°
2026-05-06 08:53 43.90935 7.85292 29857 ft 492 kts 36°
2026-05-06 08:53 43.96299 7.91250 29861 ft 493 kts 42°
2026-05-06 08:54 44.01264 7.97853 29865 ft 494 kts 45°
2026-05-06 08:54 44.06165 8.04529 29866 ft 493 kts 44°
2026-05-06 08:55 44.11068 8.11186 29858 ft 493 kts 44°
2026-05-06 08:55 44.15979 8.17840 29868 ft 492 kts 44°
2026-05-06 08:56 44.20890 8.24513 29869 ft 492 kts 44°
2026-05-06 08:56 44.25851 8.31267 29882 ft 492 kts 44°
2026-05-06 08:57 44.30828 8.38056 29877 ft 491 kts 44°
2026-05-06 08:57 44.35721 8.44745 29878 ft 491 kts 44°
2026-05-06 08:58 44.40626 8.51474 29873 ft 490 kts 44°
2026-05-06 08:58 44.45583 8.58268 29873 ft 489 kts 44°
2026-05-06 08:59 44.50493 8.65014 29877 ft 490 kts 45°
2026-05-06 08:59 44.55366 8.71717 29884 ft 489 kts 45°
2026-05-06 09:00 44.60262 8.78478 29878 ft 490 kts 45°
2026-05-06 09:00 44.65158 8.85256 29874 ft 491 kts 45°
2026-05-06 09:01 44.70097 8.92111 29871 ft 491 kts 45°
2026-05-06 09:01 44.74925 8.98825 29868 ft 490 kts 45°
2026-05-06 09:02 44.79816 9.05637 29871 ft 490 kts 45°
2026-05-06 09:02 44.84678 9.12436 29868 ft 489 kts 45°
2026-05-06 09:03 44.89588 9.19320 29868 ft 490 kts 45°
2026-05-06 09:03 44.94411 9.26094 29878 ft 490 kts 45°
2026-05-06 09:04 44.99222 9.32877 29880 ft 490 kts 45°
2026-05-06 09:04 45.04020 9.39650 29872 ft 490 kts 45°
2026-05-06 09:05 45.08846 9.46477 29884 ft 490 kts 45°
2026-05-06 09:05 45.13662 9.53319 29885 ft 489 kts 45°
2026-05-06 09:06 45.18490 9.60182 29884 ft 489 kts 45°
2026-05-06 09:06 45.23336 9.67097 29886 ft 489 kts 45°
2026-05-06 09:07 45.28197 9.74048 29895 ft 488 kts 46°
2026-05-06 09:07 45.32987 9.80917 29898 ft 487 kts 45°
2026-05-06 09:08 45.37767 9.87784 29904 ft 488 kts 46°
2026-05-06 09:08 45.42601 9.94755 29899 ft 488 kts 45°
2026-05-06 09:09 45.47372 10.01647 29904 ft 487 kts 46°
2026-05-06 09:09 45.52146 10.08560 29910 ft 487 kts 46°
2026-05-06 09:10 45.56892 10.15457 29910 ft 486 kts 46°
2026-05-06 09:10 45.61642 10.22372 29918 ft 486 kts 46°
2026-05-06 09:11 45.66400 10.29318 29913 ft 487 kts 45°
2026-05-06 09:11 45.71199 10.36342 29923 ft 486 kts 45°
2026-05-06 09:12 45.75943 10.43296 29937 ft 486 kts 46°
2026-05-06 09:12 45.80676 10.50264 29935 ft 485 kts 45°
2026-05-06 09:13 45.85430 10.57272 29935 ft 484 kts 46°
2026-05-06 09:13 45.90154 10.64216 29931 ft 484 kts 43°
2026-05-06 09:14 45.95604 10.69972 29932 ft 481 kts 26°
2026-05-06 09:14 46.01793 10.73643 29929 ft 477 kts 16°
2026-05-06 09:15 46.08131 10.76814 29922 ft 477 kts 15°
2026-05-06 09:15 46.14515 10.80082 29916 ft 477 kts 17°
2026-05-06 09:16 46.20822 10.83372 29921 ft 477 kts 17°
2026-05-06 09:16 46.27130 10.86686 29923 ft 477 kts 17°
2026-05-06 09:17 46.33451 10.90022 29930 ft 477 kts 17°
2026-05-06 09:17 46.39767 10.93360 29929 ft 477 kts 17°
2026-05-06 09:18 46.46044 10.96683 29927 ft 476 kts 17°
2026-05-06 09:18 46.52325 11.00016 29926 ft 476 kts 17°
2026-05-06 09:19 46.58425 11.03265 29932 ft 475 kts 17°
2026-05-06 09:19 46.64758 11.05902 29936 ft 470 kts
2026-05-06 09:20 46.71309 11.06688 29927 ft 469 kts 354°
2026-05-06 09:20 46.77820 11.06579 29924 ft 470 kts 353°
2026-05-06 09:21 46.84334 11.06121 29917 ft 463 kts 345°
2026-05-06 09:21 46.90458 11.03706 29912 ft 449 kts 330°
2026-05-06 09:22 46.96132 10.99919 29924 ft 448 kts 327°
2026-05-06 09:22 47.01841 10.96134 29921 ft 449 kts 328°
2026-05-06 09:23 47.07603 10.92360 29907 ft 450 kts 329°
2026-05-06 09:23 47.13303 10.88622 29910 ft 448 kts 329°
2026-05-06 09:24 47.19061 10.84837 29907 ft 449 kts 329°
2026-05-06 09:24 47.24827 10.81030 29902 ft 451 kts 329°
2026-05-06 09:25 47.30528 10.77262 29894 ft 451 kts 329°
2026-05-06 09:25 47.36265 10.73419 29888 ft 449 kts 327°
2026-05-06 09:26 47.41654 10.68940 29884 ft 441 kts 319°
2026-05-06 09:26 47.46711 10.63821 29814 ft 441 kts 318°
2026-05-06 09:26 47.49213 10.61236 29192 ft 444 kts 318°
2026-05-06 09:27 47.51770 10.58598 28410 ft 445 kts 319°
2026-05-06 09:27 47.54276 10.56032 27821 ft 441 kts 319°
2026-05-06 09:27 47.56822 10.53422 27237 ft 437 kts 319°
2026-05-06 09:27 47.59277 10.50894 26703 ft 432 kts 319°
2026-05-06 09:28 47.61730 10.48358 26174 ft 428 kts 319°
2026-05-06 09:28 47.64170 10.45832 25658 ft 423 kts 320°
2026-05-06 09:28 47.66562 10.43348 25138 ft 419 kts 320°
2026-05-06 09:28 47.68928 10.40891 24629 ft 415 kts 320°
2026-05-06 09:29 47.71304 10.38410 24106 ft 410 kts 319°
2026-05-06 09:29 47.73280 10.35494 23536 ft 394 kts 298°
2026-05-06 09:29 47.74369 10.31872 23051 ft 377 kts 277°
2026-05-06 09:29 47.74601 10.28087 22584 ft 364 kts 264°
2026-05-06 09:30 47.74522 10.24352 22099 ft 361 kts 263°
2026-05-06 09:30 47.74437 10.20638 21629 ft 358 kts 264°
2026-05-06 09:30 47.74365 10.16941 21162 ft 355 kts 264°
2026-05-06 09:30 47.74303 10.13287 20728 ft 352 kts 264°
2026-05-06 09:31 47.74247 10.09667 20273 ft 350 kts 264°
2026-05-06 09:31 47.74192 10.06069 19812 ft 348 kts 264°
2026-05-06 09:31 47.74137 10.02516 19359 ft 345 kts 264°
2026-05-06 09:31 47.74081 9.98968 18930 ft 343 kts 265°
2026-05-06 09:32 47.74022 9.95430 18489 ft 341 kts 264°
2026-05-06 09:32 47.73965 9.91943 18037 ft 339 kts 264°
2026-05-06 09:32 47.73907 9.88430 17607 ft 337 kts 265°
2026-05-06 09:32 47.73847 9.84948 17183 ft 336 kts 265°
2026-05-06 09:33 47.73787 9.81533 16766 ft 335 kts 265°
2026-05-06 09:33 47.73725 9.78083 16287 ft 334 kts 265°
2026-05-06 09:33 47.73661 9.74635 15851 ft 333 kts 265°
2026-05-06 09:33 47.73598 9.71207 15422 ft 333 kts 265°
2026-05-06 09:34 47.73534 9.67764 15009 ft 332 kts 265°
2026-05-06 09:34 47.73470 9.64335 14557 ft 332 kts 265°
2026-05-06 09:34 47.73402 9.60891 14114 ft 331 kts 265°
2026-05-06 09:34 47.73335 9.57498 13686 ft 330 kts 265°
2026-05-06 09:35 47.73268 9.54115 13262 ft 329 kts 265°
2026-05-06 09:35 47.73198 9.50684 12834 ft 328 kts 265°
2026-05-06 09:35 47.73128 9.47322 12417 ft 326 kts 266°
2026-05-06 09:35 47.73057 9.43933 11996 ft 325 kts 266°
2026-05-06 09:36 47.73127 9.40619 11555 ft 326 kts 280°
2026-05-06 09:36 47.74072 9.37544 11121 ft 330 kts 307°
2026-05-06 09:36 47.75721 9.35234 10913 ft 325 kts 320°
2026-05-06 09:36 47.77468 9.33094 10781 ft 321 kts 319°
2026-05-06 09:37 47.79155 9.30998 10666 ft 317 kts 319°
2026-05-06 09:37 47.80987 9.29251 10409 ft 310 kts 341°
2026-05-06 09:37 47.83057 9.29013 10256 ft 297 kts 13°
2026-05-06 09:37 47.84849 9.30334 10000 ft 285 kts 46°
2026-05-06 09:38 47.85837 9.32778 9724 ft 272 kts 80°
2026-05-06 09:38 47.85837 9.35514 9495 ft 262 kts 99°
2026-05-06 09:38 47.85605 9.38165 9198 ft 260 kts 97°
2026-05-06 09:38 47.85472 9.40857 8888 ft 259 kts 93°
2026-05-06 09:39 47.85441 9.43521 8596 ft 257 kts 91°
2026-05-06 09:39 47.85466 9.46164 8292 ft 255 kts 90°
2026-05-06 09:39 47.85516 9.48826 7995 ft 254 kts 89°
2026-05-06 09:39 47.85576 9.51436 7681 ft 252 kts 88°
2026-05-06 09:40 47.85638 9.54031 7375 ft 251 kts 88°
2026-05-06 09:40 47.85700 9.56612 7068 ft 250 kts 88°
2026-05-06 09:40 47.85820 9.61787 6449 ft 247 kts 88°
2026-05-06 09:41 47.85879 9.64312 6173 ft 245 kts 88°
2026-05-06 09:41 47.85936 9.66830 5863 ft 244 kts 88°
2026-05-06 09:41 47.85993 9.69344 5650 ft 238 kts 88°
2026-05-06 09:41 47.85977 9.71783 5524 ft 229 kts 101°
2026-05-06 09:42 47.85229 9.73783 5320 ft 225 kts 141°
2026-05-06 09:42 47.83869 9.74951 5061 ft 226 kts 152°
2026-05-06 09:42 47.82489 9.76023 4786 ft 225 kts 150°
2026-05-06 09:42 47.81102 9.77153 4508 ft 225 kts 150°
2026-05-06 09:43 47.79726 9.78231 4220 ft 225 kts 160°
2026-05-06 09:43 47.78197 9.78323 3968 ft 223 kts 201°
2026-05-06 09:43 47.77001 9.77002 3977 ft 215 kts 236°
2026-05-06 09:43 47.76266 9.75090 3986 ft 212 kts 243°
2026-05-06 09:44 47.75577 9.73163 3970 ft 207 kts 242°
2026-05-06 09:44 47.74889 9.71289 3969 ft 207 kts 242°
2026-05-06 09:44 47.74184 9.69412 3958 ft 207 kts 241°
2026-05-06 09:44 47.73466 9.67529 3661 ft 209 kts 241°
2026-05-06 09:45 47.72751 9.65666 3376 ft 209 kts 241°
2026-05-06 09:45 47.72025 9.63783 3095 ft 209 kts 241°
2026-05-06 09:45 47.71320 9.61959 2983 ft 201 kts 241°
2026-05-06 09:45 47.70653 9.60225 3030 ft 186 kts 242°
2026-05-06 09:46 47.70011 9.58561 2782 ft 179 kts 241°
2026-05-06 09:46 47.69411 9.57021 2479 ft 169 kts 241°
2026-05-06 09:46 47.68838 9.55551 2124 ft 162 kts 241°
2026-05-06 09:46 47.68288 9.54128 1758 ft 157 kts 241°
2026-05-06 09:47 47.67753 9.52752 1467 ft 147 kts 241°
2026-05-06 09:47 47.67268 9.51504 1360 ft 120 kts 241°
2026-05-06 09:47 47.66935 9.50643 1347 ft 70 kts 240°
2026-05-06 09:47 47.66736 9.50130 1337 ft 46 kts 240°
2026-05-06 09:48 47.66613 9.49836 1331 ft 18 kts 209°
2026-05-06 09:48 47.66521 9.49927 1333 ft 16 kts 121°
2026-05-06 09:48 47.66471 9.50076 1335 ft 15 kts 99°
2026-05-06 09:48 47.66500 9.50216 1339 ft 13 kts 60°
2026-05-06 09:49 47.66546 9.50334 1341 ft 13 kts 60°
2026-05-06 09:49 47.66593 9.50457 1344 ft 14 kts 63°
2026-05-06 09:49 47.66643 9.50586 1346 ft 14 kts 60°
2026-05-06 09:49 47.66709 9.50702 1348 ft 14 kts 34°
2026-05-06 09:50 47.66798 9.50785 1350 ft 15 kts 42°
2026-05-06 09:50 47.66858 9.50917 1353 ft 15 kts 60°
2026-05-06 09:50 47.66913 9.51060 1353 ft 17 kts 61°
2026-05-06 09:50 47.66975 9.51220 1355 ft 18 kts 60°
2026-05-06 09:51 47.67037 9.51380 1358 ft 17 kts 60°
2026-05-06 09:51 47.67097 9.51537 1360 ft 17 kts 60°
2026-05-06 09:51 47.67158 9.51694 1362 ft 17 kts 61°
2026-05-06 09:51 47.67218 9.51848 1364 ft 16 kts 60°
2026-05-06 09:52 47.67274 9.51994 1367 ft 16 kts 60°
2026-05-06 09:52 47.67329 9.52136 1368 ft 15 kts 60°
2026-05-06 09:52 47.67340 9.52231 1367 ft 7 kts 140°
2026-05-06 09:52 47.67319 9.52254 1368 ft 0 kts 150°